Starlink 34828

operational
NORAD ID: 65353 Int'l Des: 2025-190 Owner: SPXS Country: US Constellation: starlink
LEOCIRCULAR

About Starlink 34828

Description loading...

Live Position

Loading 3D Globe...

Upcoming Passes

Altitude History

Altitude vs Time

uPlot chart will show altitude changes over time

Two-Line Element Set

1 65353U 25190C 26101.89935461 .00026988 00000-0 91970-3 0 9996
2 65353 53.1611 13.6482 0000954 88.1368 271.9742 15.30211635 34845
Epoch: Apr 11, 2026 • Age: 9 hours

Current Status

Altitude 479.6 km
Velocity 7.63 km/s
Sub-Earth Point -15.79°S, 90.71°W
Launch Date Aug 28, 2025
Age 0.6 years
Type internet

Technical Details

Classification Payload
Mass 575.00 kg
Dry Mass 530.00 kg
Total Mass 575.00 kg
Length 0.30 m
Diameter 4.10 m
Span 29.00 m
Shape Box + pan
Manufacturer SPXS
Bus Type Starlink V2MO
Phase Status In Orbit
Owner/State SPXS/US

Large Constellations

Loading constellations...